| time (UTC) | temp F | wind direction | speed MPH | gust MPH | rain 1hr in | rain 24hr in | rain mn in | humidity % | barometer mb |
| 20260505200050 | 72 | 355 | 2.0 | 13.0 | 0.00 | 0.04 | 0.04 | 44 | 1004.7 |
| 20260505194548 | 72 | 272 | 6.0 | 12.0 | 0.00 | 0.04 | 0.04 | 44 | 1004.8 |
| 20260505193059 | 74 | 211 | 2.0 | 15.0 | 0.00 | 0.04 | 0.04 | 44 | 1004.8 |
| 20260505191547 | 71 | 309 | 1.0 | 12.0 | 0.00 | 0.04 | 0.04 | 49 | 1005.2 |
| 20260505190045 | 69 | 314 | 5.0 | 14.0 | 0.00 | 0.04 | 0.04 | 50 | 1005.2 |
| 20260505184545 | 68 | 280 | 5.0 | 15.0 | 0.00 | 0.04 | 0.04 | 51 | 1005.3 |
| 20260505183044 | 68 | 285 | 4.0 | 26.0 | 0.00 | 0.04 | 0.04 | 55 | 1005.2 |
| 20260505181554 | 71 | 227 | 7.0 | 20.0 | 0.00 | 0.04 | 0.04 | 43 | 1004.7 |
| 20260505180043 | 73 | 296 | 8.0 | 21.0 | 0.00 | 0.04 | 0.04 | 40 | 1004.7 |
| 20260505174547 | 73 | 261 | 3.0 | 15.0 | 0.00 | 0.04 | 0.04 | 43 | 1004.6 |
| 20260505173041 | 74 | 264 | 4.0 | 21.0 | 0.00 | 0.04 | 0.04 | 43 | 1004.7 |
| 20260505171545 | 73 | 237 | 7.0 | 15.0 | 0.00 | 0.04 | 0.04 | 45 | 1005.0 |
| 20260505170044 | 70 | 284 | 5.0 | 17.0 | 0.00 | 0.04 | 0.04 | 48 | 1005.4 |
| 20260505164549 | 71 | 259 | 4.0 | 20.0 | 0.00 | 0.04 | 0.04 | 47 | 1005.1 |
| 20260505163043 | 71 | 230 | 5.0 | 14.0 | 0.00 | 0.04 | 0.04 | 49 | 1005.3 |
| 20260505161548 | 71 | 284 | 3.0 | 17.0 | 0.00 | 0.04 | 0.04 | 49 | 1005.4 |
| 20260505153045 | 71 | 207 | 5.0 | 14.0 | 0.00 | 0.04 | 0.04 | 49 | 1006.2 |
| 20260505151533 | 71 | 40 | 6.0 | 14.0 | 0.00 | 0.04 | 0.04 | 51 | 1005.9 |
| 20260505124515 | 62 | 261 | 2.0 | 10.0 | 0.00 | 0.04 | 0.04 | 67 | 1006.5 |
| 20260505123006 | 61 | 246 | 2.0 | 8.0 | 0.00 | 0.04 | 0.04 | 71 | 1006.6 |
| 20260505121526 | 59 | 221 | 0.0 | 8.0 | 0.00 | 0.04 | 0.04 | 77 | 1007.0 |
| 20260505120008 | 58 | 227 | 2.0 | 6.0 | 0.00 | 0.04 | 0.04 | 76 | 1007.1 |
| 20260505114507 | 57 | 245 | 1.0 | 7.0 | 0.00 | 0.04 | 0.04 | 78 | 1007.0 |
| 20260505113005 | 57 | 279 | 0.0 | 10.0 | 0.00 | 0.04 | 0.04 | 80 | 1006.7 |
| 20260505111534 | 56 | 227 | 4.0 | 9.0 | 0.00 | 0.04 | 0.04 | 78 | 1006.6 |
| 20260505101559 | 54 | 214 | 2.0 | 5.0 | 0.04 | 0.04 | 0.04 | 84 | 1006.1 |
| 20260505100054 | 55 | 187 | 3.0 | 9.0 | 0.04 | 0.04 | 0.04 | 82 | 1006.2 |
| 20260505094606 | 57 | 227 | 1.0 | 8.0 | 0.01 | 0.01 | 0.01 | 74 | 1006.7 |
| 20260505093055 | 57 | 224 | 0.0 | 6.0 | 0.00 | 0.00 | 0.00 | 69 | 1006.4 |
| 20260505091549 | 57 | 212 | 1.0 | 6.0 | 0.00 | 0.00 | 0.00 | 69 | 1006.3 |
| 20260505090048 | 58 | 245 | 0.0 | 5.0 | 0.00 | 0.00 | 0.00 | 68 | 1006.3 |
| 20260505084555 | 58 | 223 | 1.0 | 7.0 | 0.00 | 0.00 | 0.00 | 68 | 1006.4 |
| 20260505083057 | 58 | 261 | 2.0 | 9.0 | 0.00 | 0.00 | 0.00 | 68 | 1006.2 |
| 20260505081556 | 58 | 271 | 4.0 | 8.0 | 0.00 | 0.00 | 0.00 | 67 | 1006.2 |
| 20260505080050 | 58 | 236 | 2.0 | 11.0 | 0.00 | 0.00 | 0.00 | 66 | 1006.2 |
| 20260505074544 | 58 | 233 | 2.0 | 8.0 | 0.00 | 0.00 | 0.00 | 66 | 1006.1 |
| 20260505073045 | 59 | 263 | 2.0 | 7.0 | 0.00 | 0.00 | 0.00 | 65 | 1006.0 |
| 20260505071548 | 59 | 236 | 3.0 | 7.0 | 0.00 | 0.00 | 0.00 | 65 | 1006.1 |
| 20260505070041 | 59 | 207 | 2.0 | 9.0 | 0.00 | 0.00 | 0.00 | 65 | 1006.0 |
| 20260505064540 | 59 | 228 | 1.0 | 8.0 | 0.00 | 0.00 | 0.00 | 65 | 1006.3 |
| 20260505063039 | 59 | 236 | 0.0 | 6.0 | 0.00 | 0.00 | 0.00 | 64 | 1006.4 |
| 20260505061539 | 59 | 249 | 1.0 | 7.0 | 0.00 | 0.00 | 0.00 | 64 | 1006.5 |
| 20260505060039 | 59 | 244 | 2.0 | 6.0 | 0.00 | 0.00 | 0.00 | 64 | 1006.4 |
| 20260505054545 | 60 | 228 | 3.0 | 7.0 | 0.00 | 0.00 | 0.00 | 64 | 1006.6 |
| 20260505053037 | 60 | 219 | 2.0 | 7.0 | 0.00 | 0.00 | 0.00 | 63 | 1006.8 |
| 20260505051532 | 60 | 306 | 2.0 | 6.0 | 0.00 | 0.00 | 0.00 | 62 | 1007.0 |
| 20260505041530 | 60 | 277 | 2.0 | 7.0 | 0.00 | 0.00 | 0.00 | 60 | 1007.0 |
| 20260505040031 | 60 | 224 | 1.0 | 5.0 | 0.00 | 0.00 | 0.00 | 60 | 1006.7 |
| 20260505034529 | 61 | 244 | 1.0 | 5.0 | 0.00 | 0.00 | 0.00 | 59 | 1006.8 |
| 20260505033036 | 61 | 226 | 1.0 | 5.0 | 0.00 | 0.00 | 0.00 | 57 | 1006.6 |
| 20260505031536 | 62 | 232 | 2.0 | 11.0 | 0.00 | 0.00 | 0.00 | 55 | 1006.7 |
| 20260505030030 | 62 | 237 | 2.0 | 8.0 | 0.00 | 0.00 | 0.00 | 53 | 1006.9 |
| 20260505024544 | 62 | 240 | 1.0 | 4.0 | 0.00 | 0.00 | 0.00 | 52 | 1006.9 |
| 20260505023039 | 62 | 240 | 1.0 | 5.0 | 0.00 | 0.00 | 0.00 | 51 | 1006.9 |
| 20260505021532 | 63 | 211 | 0.0 | 6.0 | 0.00 | 0.00 | 0.00 | 50 | 1007.0 |
| 20260505020031 | 63 | 249 | 2.0 | 11.0 | 0.00 | 0.00 | 0.00 | 49 | 1007.1 |
| 20260505014542 | 63 | 248 | 2.0 | 5.0 | 0.00 | 0.00 | 0.00 | 48 | 1007.2 |
| 20260505013032 | 63 | 281 | 0.0 | 7.0 | 0.00 | 0.00 | 0.00 | 48 | 1006.9 |
| 20260505011523 | 64 | 250 | 2.0 | 7.0 | 0.00 | 0.00 | 0.00 | 47 | 1006.7 |
| 20260505010022 | 64 | 284 | 2.0 | 14.0 | 0.00 | 0.00 | 0.00 | 47 | 1006.7 |
| 20260505004521 | 64 | 252 | 0.0 | 4.0 | 0.00 | 0.00 | 0.00 | 46 | 1006.6 |
| 20260505003021 | 65 | 259 | 1.0 | 8.0 | 0.00 | 0.00 | 0.00 | 44 | 1006.5 |
| 20260505001525 | 65 | 252 | 2.0 | 12.0 | 0.00 | 0.00 | 0.00 | 43 | 1006.3 |
| 20260505000024 | 66 | 223 | 2.0 | 7.0 | 0.00 | 0.00 | 0.00 | 40 | 1006.3 |
| 20260504234524 | 67 | 329 | 5.0 | 13.0 | 0.00 | 0.00 | 0.00 | 38 | 1006.1 |
| 20260504233027 | 68 | 228 | 3.0 | 16.0 | 0.00 | 0.00 | 0.00 | 35 | 1006.0 |
| 20260504231525 | 68 | 259 | 4.0 | 15.0 | 0.00 | 0.00 | 0.00 | 34 | 1006.0 |
| 20260504230025 | 69 | 284 | 4.0 | 16.0 | 0.00 | 0.00 | 0.00 | 33 | 1005.8 |
| 20260504224533 | 69 | 284 | 6.0 | 14.0 | 0.00 | 0.00 | 0.00 | 31 | 1006.0 |
| 20260504223024 | 70 | 316 | 5.0 | 17.0 | 0.00 | 0.00 | 0.00 | 30 | 1005.9 |
| 20260504221523 | 70 | 217 | 5.0 | 14.0 | 0.00 | 0.00 | 0.00 | 27 | 1005.8 |
| 20260504220023 | 71 | 316 | 4.0 | 14.0 | 0.00 | 0.00 | 0.00 | 27 | 1005.7 |
| 20260504214526 | 71 | 246 | 4.0 | 13.0 | 0.00 | 0.00 | 0.00 | 27 | 1005.7 |
| 20260504213023 | 72 | 258 | 4.0 | 15.0 | 0.00 | 0.00 | 0.00 | 27 | 1005.8 |
| 20260504211525 | 72 | 248 | 2.0 | 16.0 | 0.00 | 0.00 | 0.00 | 29 | 1005.9 |
| 20260504210035 | 71 | 146 | 6.0 | 19.0 | 0.00 | 0.00 | 0.00 | 29 | 1005.8 |
| 20260504204531 | 73 | 273 | 5.0 | 15.0 | 0.00 | 0.00 | 0.00 | 29 | 1006.0 |
| 20260504203025 | 73 | 119 | 4.0 | 16.0 | 0.00 | 0.00 | 0.00 | 30 | 1006.2 |
| 20260504201519 | 72 | 272 | 3.0 | 12.0 | 0.00 | 0.00 | 0.00 | 30 | 1006.4 |